Regional Weather Roundup
Issued by NWS Charleston, SC

Current Version | Previous Version | Text Only | Print | Product List | Glossary On
Versions: 1 2 3 4 5 6 7 8 9 10 11 12 13 14 15 16 17 18 19 20 21 22 23 24 25 26 27 28 29 30 31 32 33 34 35 36 37 38 39 40 41 42 43 44 45 46 47 48 49 50
000 ASUS42 KCHS 271427 RWRCHS REGIONAL WEATHER ROUNDUP NATIONAL WEATHER SERVICE CHARLESTON SC 1000 AM EDT SAT MAY 27 2017 NOTE: "FAIR" INDICATES FEW OR NO CLOUDS BELOW 12,000 FEET WITH NO SIGNIFICANT WEATHER AND/OR OBSTRUCTIONS TO VISIBILITY. NOT ALL STATIONS ARE QUALITY CONTROLLED. USE DATA WITH CAUTION... ESPECIALLY DEWPOINT OBSERVATIONS. SCZ027-030-031-034>040-042>050-271500- ...SOUTHEAST SOUTH CAROLINA... CITY SKY/WX TMP DP RH WIND PRES REMARKS N CHARLESTON SUNNY 81 63 54 W6 30.02F WATERFRONT PRK N/A 78 64 61 SW5 30.01S JOHNS ISLAND FAIR 82 66 57 SW8 30.02F PINOPOLIS N/A 75 64 69 SW5 29.94S MONCKS CORNER FAIR 79 63 57 SW6 30.01F SUMMERVILLE FAIR 77 64 65 CALM 30.02F BEAUFORT MCAS SUNNY 81 64 56 SW8 30.03F BEAUFORT ARPT NOT AVBL HILTON HEAD IS SUNNY 79 61 53 SW7 30.05 WALTERBORO SUNNY 81 63 54 W7 30.03S ALLENDALE FAIR 81 64 57 VRB6 30.02S ...SOUTHERN MIDLANDS AND PEE DEE... CITY SKY/WX TMP DP RH WIND PRES REMARKS GEORGETOWN FAIR 79 64 61 W7 30.02S KINGSTREE NOT AVBL ORANGEBURG SUNNY 79 64 60 W10 30.00F BARNWELL FAIR 82 66 57 SW10 30.02S AIKEN FAIR 81 64 57 SW10 30.05F MANNING NOT AVBL COLUMBIA PTSUNNY 84 63 49 W18 29.98S SUMTER SUNNY 80 64 58 W10 29.97S FLORENCE SUNNY 79 65 62 W9 29.98F MYRTLE BEACH SUNNY 81 64 57 W7 30.00F N MYRTLE BEACH SUNNY 81 64 56 SW8 29.99S $$ GAZ063-065-086>088-099>101-113>116-118-119-134>141-150-271500- ...SOUTHEAST GEORGIA... CITY SKY/WX TMP DP RH WIND PRES REMARKS SAVANNAH ARPT MOSUNNY 82 60 47 SW8 30.05S HUNTER AAF SUNNY 81 69 67 W7 30.02F FORT STEWART SUNNY 79 63 58 W6 30.03F STATESBORO SUNNY 81 66 60 W7 30.04S SYLVANIA SUNNY 80 68 65 W3 30.05S CLAXTON FAIR 80 70 71 SW5 30.05S ...CSRA...CENTRAL AND FAR SOUTHEAST GEORGIA... CITY SKY/WX TMP DP RH WIND PRES REMARKS THOMSON SUNNY 80 64 58 NW8 30.08F AUGUSTA-BUSH SUNNY 83 65 54 W10 30.01F AUGUSTA-DANIEL SUNNY 82 62 50 SW5 30.03S SWAINSBORO FAIR 79 64 61 W7 30.06S VIDALIA SUNNY 81 64 57 W6 30.06F EASTMAN FAIR 80 48 32 W6 30.09F HAZLEHURST FAIR 80 64 58 CALM 30.06S ALMA SUNNY 79 64 60 VRB5 30.07S WAYCROSS SUNNY 83 68 60 CALM 30.07F JESUP FAIR 81 61 50 NW7 30.06F BAXLEY FAIR 81 68 65 W5 30.06F BRUNSWICK SUNNY 81 68 65 SW6 30.07F SAINT SIMONS LGT RAIN 79 65 62 NW7 30.06S $$ SCZ027-028-034-036>038-045-046-048>050-GAZ119-141-271500- ...LAKE AND SUPPLEMENTAL COASTAL OBSERVATIONS... STATION/POSITION TIME TEMP WIND PRES WAVE SWELL AIR SEA DIR/SP/G HT/PER HT/PER/DIR (UTC) (F) (DEG/KT/KT) (MB) (FT/S) (FT/S/D) WINYAH BAY 1345 78 260/ 7 1016.0S LAKE MURRAY 1350 77 250/ 9/ 14 1014.9R ACE BASIN NERRS 1330 78 220/ 2 1017.0S FORT PULASKI 1400 79 260/ 6/ 9 1017.5 SAPELO ISLAND 1400 78 CALM 1018.0 $$ ANZ835-935-AMZ111-154-330-350-352-354-370-450-454-472-271500- ...C-MAN AND BUOY OBSERVATIONS... STATION/POSITION TIME TEMP WIND PRES WAVE SWELL AIR SEA DIR/SP/G HT/PER HT/PER/DIR (UTC) (F) (DEG/KT/KT) (MB) (FT/S) (FT/S/D) BUOY 41004 1410 75 74 230/ 12/ 14 1016.6 BUOY 41008 1350 75 77 270/ 8/ 8 1017.6S 2/ 4 2/170/ 4 FOLLY BEACH CMAN 1400 78 210/ 11/ 13 1017.4F CAPERS NEARSHORE 1408 81 76 240/ 12/ 16 1016.4F FRIPP NEARSHORE 1408 76 77 240/ 10/ 16 1016.8F STATION/POSITION TIME TEMP WIND PRES WAVE SWELL AIR SEA DIR/SP/G HT/PER HT/PER/DIR (UTC) (F) (DEG/KT/KT) (MB) (FT/S) (FT/S/D) 5E ST. MARYS GA 1400 78 N/A 2/ 7 FRYING PAN BUOY 1410 74 75 230/ 12/ 16 1015.9 BUOY 41025 1350 76 77 260/ 10/ 12 1014.6R 3/ 8 3/140/ 8 CAPE LOOKOUT NC 1400 76 250/ 9/ 12 1014.8S BUOY 41002 1350 76 77 270/ 8/ 12 1017.4R 4/ 5 3/300/ 5 BUOY 41010 1410 79 79 250/ 2/ 4 1018.8 ST AUGUSTINE FL 1400 73 76 40/ 3/ 4 1019.9R $$

USA.gov is the U.S. government's official web portal to all federal, state and local government web resources and services.